EZY18MN EGPH-EGLC

Flight info

Callsign EZY18MN
Flight time N/A
Altitude 35000
Route GOSAM P600 FENIK L612 NAVSO DCT AKOMU DCT VAMEB UL612 LISTO
Aircraft A320/M-SDE3FGHIRWY/LB1

Departure

Time 2026-04-24 13:54
Airport Edinburgh Airport (EGPH)

Arrival

Time N/A
Airport London City Airport (EGLC)
Time Latitude Longitude Altitude Speed Heading
2026-04-24 12:50 55.94920 -3.36429 105 ft 0 kts 147°
2026-04-24 13:44 55.94928 -3.36438 105 ft 2 kts 150°
2026-04-24 13:44 55.94941 -3.36452 105 ft 2 kts 149°
2026-04-24 13:45 55.94953 -3.36466 104 ft 2 kts 150°
2026-04-24 13:45 55.94967 -3.36479 104 ft 2 kts 149°
2026-04-24 13:45 55.94976 -3.36489 104 ft 0 kts 149°
2026-04-24 13:45 55.94980 -3.36493 104 ft 0 kts 108°
2026-04-24 13:46 55.94980 -3.36501 104 ft 0 kts 62°
2026-04-24 13:46 55.94976 -3.36511 104 ft 0 kts 57°
2026-04-24 13:49 55.94979 -3.36503 104 ft 1 kts 58°
2026-04-24 13:49 55.94996 -3.36455 104 ft 8 kts 58°
2026-04-24 13:50 55.95028 -3.36391 104 ft 7 kts 21°
2026-04-24 13:50 55.95070 -3.36447 104 ft 10 kts 267°
2026-04-24 13:50 55.95032 -3.36579 103 ft 13 kts 239°
2026-04-24 13:50 55.94979 -3.36737 102 ft 16 kts 239°
2026-04-24 13:51 55.94911 -3.36940 102 ft 21 kts 238°
2026-04-24 13:51 55.94821 -3.37203 103 ft 29 kts 239°
2026-04-24 13:51 55.94704 -3.37548 103 ft 33 kts 239°
2026-04-24 13:51 55.94580 -3.37915 107 ft 35 kts 239°
2026-04-24 13:52 55.94442 -3.38324 111 ft 40 kts 238°
2026-04-24 13:52 55.94304 -3.38730 117 ft 27 kts 239°
2026-04-24 13:52 55.94321 -3.38894 117 ft 0 kts 332°
2026-04-24 13:53 55.94326 -3.38899 117 ft 4 kts 331°
2026-04-24 13:53 55.94424 -3.38935 115 ft 14 kts 64°
2026-04-24 13:53 55.94472 -3.38797 114 ft 13 kts 57°
2026-04-24 13:53 55.94574 -3.38504 109 ft 62 kts 59°
2026-04-24 13:54 55.94949 -3.37398 101 ft 141 kts 59°
2026-04-24 13:54 55.95541 -3.35649 369 ft 179 kts 58°
2026-04-24 13:54 55.96228 -3.33674 934 ft 196 kts 56°
2026-04-24 13:54 55.97110 -3.31917 1899 ft 190 kts 40°
2026-04-24 13:55 55.98162 -3.30390 2549 ft 206 kts 37°
2026-04-24 13:55 55.99340 -3.28748 3172 ft 224 kts 31°
2026-04-24 13:55 56.00840 -3.27791 3766 ft 241 kts
2026-04-24 13:55 56.02503 -3.28381 4465 ft 255 kts 332°
2026-04-24 13:56 56.03786 -3.30543 5268 ft 259 kts 302°
2026-04-24 13:56 56.04266 -3.33632 5814 ft 264 kts 271°
2026-04-24 13:56 56.03786 -3.36797 6350 ft 270 kts 246°
2026-04-24 13:56 56.02915 -3.39795 6885 ft 271 kts 247°
2026-04-24 13:57 56.02158 -3.42847 7437 ft 273 kts 252°
2026-04-24 13:57 56.01542 -3.46028 8418 ft 273 kts 256°
2026-04-24 13:57 56.01022 -3.49236 9473 ft 271 kts 257°
2026-04-24 13:57 56.00542 -3.52468 10411 ft 272 kts 257°
2026-04-24 13:58 56.00068 -3.55762 11146 ft 280 kts 256°
2026-04-24 13:58 55.99571 -3.59239 11590 ft 298 kts 256°
2026-04-24 13:58 55.99044 -3.62923 11995 ft 316 kts 256°
2026-04-24 13:58 55.98477 -3.66864 12366 ft 334 kts 255°
2026-04-24 13:59 55.97890 -3.70934 12837 ft 347 kts 255°
2026-04-24 13:59 55.97284 -3.75132 13630 ft 350 kts 255°
2026-04-24 13:59 55.96673 -3.79361 14464 ft 351 kts 255°
2026-04-24 13:59 55.96070 -3.83521 15234 ft 353 kts 255°
2026-04-24 14:00 55.95448 -3.87807 16000 ft 355 kts 255°
2026-04-24 14:00 55.94824 -3.92090 16733 ft 357 kts 255°
2026-04-24 14:00 55.94204 -3.96366 17441 ft 359 kts 256°
2026-04-24 14:00 55.93673 -4.00694 18126 ft 361 kts 258°
2026-04-24 14:01 55.92931 -4.04992 18772 ft 364 kts 244°
2026-04-24 14:01 55.91494 -4.08671 19413 ft 369 kts 228°
2026-04-24 14:01 55.89412 -4.11467 20055 ft 377 kts 212°
2026-04-24 14:01 55.86924 -4.13119 20691 ft 385 kts 202°
2026-04-24 14:02 55.84400 -4.14649 21301 ft 384 kts 207°
2026-04-24 14:02 55.81988 -4.16722 21876 ft 382 kts 213°
2026-04-24 14:02 55.79712 -4.19137 22446 ft 383 kts 217°
2026-04-24 14:02 55.77480 -4.21755 23004 ft 383 kts 219°
2026-04-24 14:03 55.75209 -4.24307 23520 ft 390 kts 211°
2026-04-24 14:03 55.72607 -4.25802 24004 ft 404 kts 196°
2026-04-24 14:03 55.69744 -4.25945 24494 ft 421 kts 181°
2026-04-24 14:03 55.66831 -4.24561 24955 ft 440 kts 165°
2026-04-24 14:04 55.64076 -4.22162 25425 ft 448 kts 160°
2026-04-24 14:04 55.61317 -4.19400 25840 ft 452 kts 158°
2026-04-24 14:04 55.58593 -4.16615 26220 ft 455 kts 159°
2026-04-24 14:04 55.55849 -4.13848 26609 ft 457 kts 159°
2026-04-24 14:05 55.53062 -4.11093 26968 ft 459 kts 160°
2026-04-24 14:05 55.50246 -4.08343 27321 ft 462 kts 160°
2026-04-24 14:05 55.47408 -4.05584 27657 ft 464 kts 160°
2026-04-24 14:05 55.44569 -4.02868 28030 ft 464 kts 152°
2026-04-24 14:06 55.41709 -4.00182 28643 ft 459 kts 151°
2026-04-24 14:06 55.38932 -3.97477 29038 ft 459 kts 151°
2026-04-24 14:06 55.36117 -3.94719 29381 ft 460 kts 151°
2026-04-24 14:06 55.33329 -3.92000 29746 ft 460 kts 151°
2026-04-24 14:07 55.30536 -3.89294 30135 ft 459 kts 151°
2026-04-24 14:07 55.27702 -3.86563 30533 ft 459 kts 151°
2026-04-24 14:07 55.24922 -3.83895 30918 ft 458 kts 151°
2026-04-24 14:07 55.22076 -3.81210 31302 ft 457 kts 153°
2026-04-24 14:08 55.19228 -3.78750 31674 ft 457 kts 154°
2026-04-24 14:08 55.16406 -3.76326 32033 ft 456 kts 153°
2026-04-24 14:08 55.13545 -3.73862 32383 ft 455 kts 153°
2026-04-24 14:08 55.10708 -3.71423 32720 ft 455 kts 153°
2026-04-24 14:09 55.07838 -3.68960 33052 ft 454 kts 153°
2026-04-24 14:09 55.04993 -3.66524 33358 ft 454 kts 153°
2026-04-24 14:09 55.02151 -3.64094 33611 ft 454 kts 153°
2026-04-24 14:09 54.99318 -3.61678 33833 ft 455 kts 153°
2026-04-24 14:10 54.96458 -3.59241 34048 ft 456 kts 153°
2026-04-24 14:10 54.93589 -3.56801 34260 ft 457 kts 153°
2026-04-24 14:10 54.90713 -3.54359 34464 ft 458 kts 153°
2026-04-24 14:10 54.87843 -3.51926 34659 ft 459 kts 153°
2026-04-24 14:11 54.84986 -3.49508 34843 ft 460 kts 153°
2026-04-24 14:11 54.82117 -3.47085 34991 ft 461 kts 153°
2026-04-24 14:12 54.73468 -3.39799 35002 ft 461 kts 153°
2026-04-24 14:12 54.67762 -3.35012 35003 ft 461 kts 153°
2026-04-24 14:13 54.62049 -3.30234 35003 ft 461 kts 154°
2026-04-24 14:13 54.56321 -3.25457 35003 ft 461 kts 154°
2026-04-24 14:14 54.50640 -3.20736 35003 ft 461 kts 154°
2026-04-24 14:14 54.42090 -3.13656 35003 ft 461 kts 154°
2026-04-24 14:15 54.36421 -3.08980 35003 ft 461 kts 154°
2026-04-24 14:15 54.30705 -3.04279 35003 ft 461 kts 154°
2026-04-24 14:16 54.25003 -2.99603 35003 ft 461 kts 154°
2026-04-24 14:17 54.16450 -2.92683 35003 ft 461 kts 156°
2026-04-24 14:17 54.07632 -2.86251 35003 ft 461 kts 156°
2026-04-24 14:18 54.01830 -2.82028 35003 ft 461 kts 156°
2026-04-24 14:18 53.95985 -2.77791 35003 ft 461 kts 156°
2026-04-24 14:19 53.90215 -2.73617 35003 ft 461 kts 156°